This is the latest recevied weather packets stored in our database for station/object WW5JC. If no packets are shown the sender has not sent any weather packets the latest 10 day(s).
| Time | Temp. | Humidity | Pressure | Rain* | Wind** | Luminosity | Snow |
|---|---|---|---|---|---|---|---|
| 1777148206 | 20.56° C | 98% | 1009.5 hPa | 0 mm | - | 184 W/m² | - |
| 1777147903 | 20.56° C | 98% | 1009.5 hPa | 0 mm | - | 119 W/m² | - |
| 1777147598 | 20.56° C | 98% | 1009.3 hPa | 0 mm | - | 109 W/m² | - |
| 1777147293 | 20.56° C | 97% | 1009.4 hPa | 0 mm | - | 132 W/m² | - |
| 1777146989 | 20.56° C | 97% | 1009.4 hPa | 0 mm | - | 153 W/m² | - |
| 1777146686 | 20.56° C | 97% | 1009.5 hPa | 0 mm | - | 178 W/m² | - |
| 1777146380 | 20.56° C | 97% | 1009.4 hPa | 0 mm | - | 155 W/m² | - |
| 1777146078 | 20.56° C | 97% | 1009.6 hPa | 0 mm | - | 165 W/m² | - |
| 1777145773 | 20.56° C | 97% | 1009.6 hPa | 0 mm | - | 142 W/m² | - |
| 1777145469 | 20.56° C | 97% | 1009.9 hPa | 0 mm | - | 145 W/m² | - |
| 1777145165 | 20.56° C | 96% | 1009.7 hPa | 0 mm | - | 228 W/m² | - |
| 1777144860 | 20.56° C | 97% | 1009.7 hPa | 0 mm | - | 305 W/m² | - |
| 1777144559 | 20.56° C | 97% | 1009.9 hPa | 0 mm | - | 315 W/m² | - |
| 1777144256 | 20.56° C | 97% | 1009.8 hPa | 0 mm | - | 280 W/m² | - |
| 1777143952 | 20.56° C | 96% | 1009.9 hPa | 0 mm | - | 250 W/m² | - |
| 1777143648 | 20.56° C | 96% | 1009.8 hPa | 0 mm | - | 429 W/m² | - |
| 1777143344 | 20.56° C | 96% | 1009.8 hPa | 0 mm | - | 368 W/m² | - |
| 1777143040 | 20.56° C | 98% | 1010 hPa | 0 mm | - | 362 W/m² | - |
| 1777142736 | 20° C | 98% | 1010.1 hPa | 0 mm | - | 338 W/m² | - |
| 1777142433 | 20° C | 98% | 1010 hPa | 0 mm | - | 347 W/m² | - |
| 1777142133 | 19.44° C | 98% | 1010.2 hPa | 0 mm | - | 197 W/m² | - |
| 1777141829 | 19.44° C | 98% | 1010.4 hPa | 0 mm | - | 182 W/m² | - |
| 1777141526 | 19.44° C | 99% | 1010.4 hPa | 0 mm | - | 175 W/m² | - |
| 1777141225 | 19.44° C | 98% | 1010.4 hPa | 0 mm | - | 163 W/m² | - |
| 1777140921 | 19.44° C | 99% | 1010.6 hPa | 0 mm | - | 161 W/m² | - |
* Rain latest hour (hover to see other rain measurements)
** Current wind speed in m/s (hover to see current wind gust speed)